Location: Menard
(37.9101°N, 89.8398°W)
Time: 07:09:29
(UTC+00:00)

ACS3 Solar Sail - Visible Passes

Search period start: 12 October 2024 00:00
Search period end: 22 October 2024 00:00
Orbit: 960 x 1033 km, 97.5° (Epoch: 12 October)

Date Brightness Start Highest point End Pass type
(mag) Time Alt. Az. Time Alt. Az. Time Alt. Az.
12 Oct 2.6 00:59:34 30° E 01:00:16 31° ENE 01:05:41 10° N visible
12 Oct 3.0 02:44:41 39° W 02:44:41 39° W 02:49:52 10° NNW visible
13 Oct 1.9 01:31:10 54° ENE 01:31:10 54° ENE 01:37:16 10° N visible
13 Oct 3.9 03:16:17 21° WNW 03:16:17 21° WNW 03:20:05 10° NW visible
14 Oct 3.3 00:17:38 14° ENE 00:19:07 15° ENE 00:22:26 10° NNE visible
14 Oct 1.9 02:02:44 75° NNW 02:02:44 75° NNW 02:08:31 10° NNW visible
14 Oct 4.6 03:47:51 11° WNW 03:47:51 11° WNW 03:48:28 10° WNW visible
15 Oct 2.7 00:49:12 26° ENE 00:49:46 27° ENE 00:54:51 10° NNE visible
15 Oct 2.8 02:34:18 44° WNW 02:34:18 44° WNW 02:39:23 10° NNW visible
16 Oct 2.1 01:20:45 47° ENE 01:20:45 47° ENE 01:26:33 10° N visible
16 Oct 3.7 03:05:52 24° WNW 03:05:52 24° WNW 03:09:44 10° NW visible
17 Oct 3.5 00:07:12 12° ENE 00:08:36 13° ENE 00:11:06 10° NE visible
17 Oct 1.9 01:52:19 69° N 01:52:19 69° N 01:57:50 10° N visible
17 Oct 4.5 03:37:25 13° WNW 03:37:25 13° WNW 03:38:56 10° WNW visible
18 Oct 2.9 00:38:45 23° ENE 00:39:10 23° ENE 00:43:55 10° NNE visible
18 Oct 2.6 02:23:51 48° WNW 02:23:51 48° WNW 02:28:46 10° NNW visible
19 Oct 2.3 01:10:17 40° ENE 01:10:17 40° ENE 01:15:42 10° N visible
19 Oct 3.6 02:55:23 27° WNW 02:55:23 27° WNW 02:59:15 10° NW visible
19 Oct 3.6 23:56:59 10° ENE 23:58:02 10° ENE 23:59:03 10° NE visible
20 Oct 2.0 01:41:48 61° NNE 01:41:48 61° NNE 01:47:03 10° N visible
20 Oct 4.3 03:26:54 14° WNW 03:26:54 14° WNW 03:28:52 10° NW visible
21 Oct 3.1 00:28:12 20° ENE 00:28:31 20° ENE 00:32:48 10° NNE visible
21 Oct 2.5 02:13:18 50° NW 02:13:18 50° NW 02:18:02 10° NNW visible
